Location: ??????????
(44.2167°N, 135.5333°E)
Time: 13:46:18
(UTC+00:00)

Cosmos 2297 Rocket - Pass Details

Date: 15 June 2025
Orbit: 838 x 842 km, 71.0° (Epoch: 15 July)

Event Time Altitude Azimuth Distance (km) Brightness Sun altitude
Rises 12:22:02 0° 228° (SW) 3,386 5.3 -13.6°
Reaches altitude 10° 12:24:38 10° 236° (WSW) 2,456 4.6 -13.8°
Maximum altitude 12:29:51 38° 304° (NW) 1,270 3.7 -14.4°
Drops below altitude 10° 12:35:07 10° 12° (NNE) 2,471 5.3 -14.9°
Sets 12:37:46 0° 20° (NNE) 3,409 5.9 -15.2°
